KAMA

Rick Husband Amarillo International Airport

Airport
ICAO code
KAMA
Summary
ICAO Region
NAM
ICAO Territory
Location

Amarillo, Texas,

Coordinates
35° 13' 7" N , 101° 42' 19" W
KCC
Airport WX
Tornado
Metar
KAMA 191053Z 03005KT 10SM CLR 02/M01 A3023 RMK AO2 SLP227 T00221011

Description

Rick Husband Amarillo International Airport is a public use airport located 10 km east of the central business district of Amarillo, in Potter and Randall Counties, Texas.

Climatology

Semi-arid Steppe climate (Köppen climate classification BSk) - Little precipitation, hot summers and cool, occasionally cold, winters, sometimes with large changes in temperature in a 24 hour period.

Airport map

Aerial View

SKYbrary Partners:

Safety knowledge contributed by: